CDT,Max TemperatureF,Mean TemperatureF,Min TemperatureF,Max Dew PointF,MeanDew PointF,Min DewpointF,Max Humidity, Mean Humidity, Min Humidity, Max Sea Level PressureIn, Mean Sea Level PressureIn, Min Sea Level PressureIn, Max VisibilityMiles, Mean VisibilityMiles, Min VisibilityMiles, Max Wind SpeedMPH, Mean Wind SpeedMPH, Max Gust SpeedMPH,PrecipitationIn, CloudCover, Events, WindDirDegrees
2013-3-1,51,40,29,27,24,20,72,52,31,30.36,30.28,30.21,10,10,10,23,10,29,0.00,3,,341
2013-3-2,67,48,29,30,27,24,85,53,20,30.36,30.26,30.12,10,10,10,18,9,23,0.00,1,,252
2013-3-3,76,56,36,35,24,17,60,37,14,30.09,29.78,29.55,10,10,10,36,18,43,0.00,0,,232
2013-3-4,74,54,34,37,28,18,76,46,15,30.18,29.73,29.55,10,10,10,35,18,52,0.00,2,,330
2013-3-5,49,37,25,27,17,11,78,51,23,30.46,30.34,30.19,10,10,10,32,10,39,0.00,0,,348
2013-3-6,60,45,30,21,17,14,58,40,22,30.32,30.16,29.99,10,10,10,36,21,40,0.00,0,,173
2013-3-7,81,59,36,31,24,17,52,33,13,30.01,29.92,29.83,10,10,7,24,15,31,0.00,0,,190
2013-3-8,75,62,49,49,41,32,77,49,21,29.91,29.79,29.66,10,10,9,35,17,48,0.10,5,Rain,172
2013-3-9,61,49,36,49,31,11,93,54,14,29.82,29.67,29.56,10,10,10,39,22,51,0.03,3,,246
2013-3-10,45,38,30,27,17,9,75,50,24,30.14,30.01,29.81,10,10,10,45,23,56,T,3,,334
2013-3-11,69,48,26,25,18,15,63,38,13,30.14,29.99,29.86,10,10,10,17,9,22,0.00,0,,249
2013-3-12,56,47,37,31,28,24,76,54,32,30.35,30.17,29.85,10,10,10,29,12,35,0.00,0,,37
2013-3-13,71,53,35,32,29,26,76,48,20,30.36,30.27,30.17,10,10,10,28,15,35,0.00,0,,186
2013-3-14,76,59,41,34,28,26,53,35,16,30.20,30.14,30.07,10,10,10,12,8,15,0.00,0,,148
2013-3-15,85,64,42,36,26,14,65,36,7,30.07,29.89,29.72,10,10,10,20,8,23,0.00,0,,250
2013-3-16,62,53,43,37,30,18,61,42,22,29.86,29.75,29.63,10,10,10,30,15,35,0.00,0,,354
2013-3-17,76,56,35,41,31,24,75,47,19,29.86,29.70,29.50,10,10,2,43,9,60,0.02,1,Rain,264
2013-3-18,60,49,37,32,23,16,67,43,19,29.99,29.86,29.60,10,10,10,21,13,25,0.00,0,,37
2013-3-19,59,48,36,35,27,19,59,46,32,30.23,30.02,29.90,10,10,10,22,11,25,0.00,1,,97
2013-3-20,64,47,29,25,19,12,51,34,17,30.32,30.14,29.82,10,10,10,29,13,37,0.00,0,,136
2013-3-21,79,62,44,40,29,12,63,36,8,29.79,29.53,29.33,10,10,10,28,14,36,0.00,0,,249
2013-3-22,58,46,34,37,32,29,82,59,36,29.87,29.76,29.62,10,9,6,22,13,25,0.00,2,,47
2013-3-23,64,45,25,38,31,17,85,55,25,30.12,29.79,29.48,10,8,0,40,17,47,T,5,Snow,5
2013-3-24,43,33,22,17,12,8,74,49,24,30.26,30.17,30.09,10,10,10,26,12,32,0.00,2,,357
2013-3-25,46,34,21,17,14,11,74,50,25,30.40,30.32,30.26,10,10,10,14,7,21,0.00,2,,355
2013-3-26,64,45,26,14,13,11,55,34,13,30.37,30.21,30.02,10,10,10,30,19,44,0.00,0,,177
2013-3-27,76,59,41,26,21,16,43,28,12,29.98,29.94,29.90,10,10,10,29,14,36,0.00,0,,22
2013-3-28,76,57,38,35,30,26,59,39,18,30.06,29.99,29.94,10,10,10,17,8,20,0.00,0,,360
2013-3-29,80,61,42,47,38,33,70,46,22,30.04,29.96,29.89,10,10,10,15,9,18,0.00,0,,104
2013-3-30,81,64,46,45,38,29,80,48,16,30.07,29.91,29.84,10,10,10,18,8,35,0.00,0,,356
2013-3-31,71,60,49,45,38,27,86,54,21,30.07,29.98,29.84,10,10,10,37,12,44,T,3,Rain-Thunderstorm,45